Theta_e
318 321 323 323 322 322 324 328 327 331 329 330 330 331 330 328 334 331 327 326 332 332 333 333 333 333 333 334 335 335 334 333 336 334 332 337 341 340 341 342 340 338 337
317 320 322 323 322 319 322 327 327 328 328 330 333 332 332 331 326 327 327 329 329 333 333 335 332 333 330 333 334 335 332 335 338 329 328 321 325 334 336 340 336 336 335
316 319 321 321 321 321 323 324 326 328 330 334 333 336 336 333 334 329 331 330 329 332 333 333 332 332 332 331 335 337 335 330 336 333 328 320 318 323 333 331 332 333 332
317 319 321 321 321 322 324 323 326 329 330 335 332 332 331 328 330 334 333 330 332 329 332 333 333 334 332 337 338 341 337 336 331 334 331 335 331 319 316 326 329 332 331
317 318 320 320 320 323 324 328 328 328 332 334 332 328 330 335 335 336 332 333 334 334 333 333 334 335 337 337 337 337 338 336 330 331 329 333 329 327 321 317 319 323 329
317 319 321 321 320 323 324 326 327 327 330 333 333 331 329 329 330 331 331 329 334 335 333 331 331 336 337 337 340 339 339 339 338 335 336 327 327 324 323 321 320 319 319
316 318 319 318 319 322 323 325 324 325 326 328 331 330 331 330 328 328 327 330 329 334 332 332 334 335 336 336 338 338 338 338 333 331 331 331 327 329 324 320 319 317 317
317 318 319 320 318 321 323 325 324 324 324 326 328 330 331 327 327 333 330 330 331 327 331 330 335 333 335 335 338 337 338 338 333 329 329 331 329 330 327 321 316 313 316
317 318 320 320 318 320 324 326 325 323 324 325 328 329 329 330 329 337 337 331 330 332 333 333 331 335 335 334 338 340 338 336 331 328 329 328 325 328 324 323 323 320 316
316 318 320 320 319 321 325 328 328 323 325 324 326 325 328 329 331 335 334 333 332 328 327 332 334 334 336 337 337 338 336 334 332 330 330 326 327 324 322 321 321 325 326
317 318 320 320 319 322 323 326 328 325 323 324 325 327 325 328 330 330 331 332 329 330 328 325 326 328 333 333 338 336 332 331 329 331 327 326 328 325 324 323 324 327 325
318 319 320 319 318 321 322 324 327 325 321 322 324 326 325 327 328 329 331 333 333 332 329 329 327 327 327 330 334 335 334 333 331 332 332 327 330 331 332 329 329 329 329
318 319 320 317 317 320 321 322 326 324 320 320 322 325 325 327 328 329 330 330 330 332 333 330 328 327 326 328 330 333 334 335 335 335 334 333 334 332 332 331 325 324 323
317 318 319 318 317 319 320 321 324 323 319 319 319 322 325 326 327 329 329 328 327 328 330 331 330 331 329 327 331 335 335 335 334 335 335 334 333 332 333 329 326 324 323
317 318 319 318 318 319 320 321 323 322 320 319 319 320 325 325 326 327 329 329 327 326 325 326 326 328 327 325 329 329 330 330 330 331 331 332 324 317 321 321 327 329 323
317 318 319 318 317 319 319 321 323 322 321 320 320 320 321 323 324 327 329 328 327 325 325 325 324 325 321 303 309 324 327 327 327 327 325 323 318 313 308 310 310 323 328
318 319 320 319 319 319 321 322 323 323 321 320 321 319 319 320 323 324 325 327 328 330 326 325 325 326 322 300 303 311 331 330 330 330 329 323 320 322 323 306 307 307 307
320 320 321 322 321 321 322 323 323 323 320 320 321 320 317 318 321 323 324 328 330 330 329 328 327 326 317 299 300 308 328 329 328 329 328 327 326 322 323 323 323 323 323
324 323 324 324 323 321 323 322 322 322 320 319 320 320 318 317 320 321 324 328 329 329 328 327 327 325 321 298 297 307 323 323 322 321 321 322 320 300 301 319 320 321 321
327 326 325 325 324 323 323 323 322 321 320 319 320 321 319 318 319 322 325 327 327 325 322 324 326 316 324 296 295 304 314 318 314 316 315 299 309 295 297 321 321 319 320
327 328 327 325 326 324 323 322 322 321 321 321 320 322 322 320 323 325 326 326 325 323 323 322 324 324 321 317 295 295 315 313 311 310 311 308 295 294 294 296 319 316 317
326 326 325 325 327 325 323 322 322 324 323 321 320 322 324 319 321 326 326 325 324 323 322 321 320 320 323 307 296 294 295 305 316 315 316 314 292 292 293 296 296 295 297
326 325 326 326 326 326 324 322 324 324 323 322 321 323 324 321 322 324 324 321 323 318 318 317 316 317 319 321 299 295 293 295 317 321 308 298 293 292 292 292 293 290 309
326 326 325 324 325 326 326 327 325 324 322 323 322 324 324 322 321 322 322 320 319 318 317 316 316 317 318 318 319 313 309 297 305 306 315 309 304 302 303 307 303 309 313
326 327 325 325 325 326 326 327 325 324 324 324 324 324 324 323 321 321 320 319 325 317 318 318 318 318 318 318 311 313 317 317 312 314 318 316 315 315 316 317 317 318 319
327 327 326 326 326 326 326 326 325 325 328 327 324 323 322 323 321 319 318 303 302 301 299 300 310 318 303 297 298 300 300 298 295 311 317 318 318 317 318 321 323 324 313
Wind_Speed
13 12 11 7 5 3 3 5 5 5 6 7 7 6 6 6 2 0 2 5 8 5 6 6 7 7 7 9 9 8 9 6 7 7 5 6 11 10 10 8 9 8 5
15 13 12 9 6 3 2 5 4 5 5 5 5 6 5 4 2 3 4 5 1 4 6 8 8 8 7 7 9 9 7 6 9 4 4 5 5 7 8 9 9 9 6
17 16 14 10 7 5 4 1 4 5 5 6 5 5 1 2 3 3 5 3 1 4 5 8 9 9 8 8 9 9 10 10 7 10 3 3 2 5 6 9 10 9 7
17 16 15 12 9 6 5 2 2 4 4 6 6 7 4 4 4 3 3 2 6 3 4 7 9 8 7 8 9 7 9 10 10 5 3 9 13 4 5 5 8 8 6
18 18 16 13 10 8 6 3 1 4 4 6 7 7 7 5 4 2 4 5 7 8 6 6 8 8 6 9 11 11 10 11 7 8 9 11 7 2 3 8 8 7 4
18 17 15 13 11 9 7 4 2 4 4 5 7 8 8 8 6 4 3 4 5 5 7 7 5 8 8 10 10 11 14 12 10 11 8 8 5 5 3 9 9 7 4
19 18 17 14 12 11 8 6 3 5 4 4 6 7 7 5 3 4 3 3 4 8 7 7 8 6 8 10 12 12 13 13 12 11 6 6 5 6 8 9 7 5 2
18 18 17 14 13 12 10 7 5 5 4 6 6 6 8 6 5 5 4 4 6 4 7 6 9 9 9 10 12 10 8 11 9 13 5 6 4 7 9 7 9 7 3
18 18 17 14 12 11 11 8 5 5 5 6 4 5 6 7 5 8 8 6 5 4 6 6 6 8 11 9 11 8 11 11 11 9 7 6 4 4 5 7 5 3 6
18 17 16 14 12 11 10 8 7 6 6 5 4 5 6 6 6 5 7 7 4 5 5 7 5 7 9 11 11 9 11 13 10 7 11 8 5 6 6 6 3 2 5
18 18 16 14 14 13 11 9 8 7 7 5 5 5 5 6 6 6 7 8 7 6 7 6 6 5 6 6 9 12 9 10 8 10 11 9 10 6 4 3 2 6 8
17 17 16 16 15 13 12 10 8 7 8 7 6 6 6 6 7 7 8 9 10 10 10 7 6 4 3 2 4 8 9 12 10 10 13 12 11 12 11 9 6 5 4
18 16 16 16 15 14 13 11 10 9 8 8 8 6 6 7 7 8 6 10 8 10 12 12 9 6 4 4 7 7 10 10 11 11 12 12 11 11 9 8 7 6 5
20 17 16 16 15 14 13 12 11 11 9 9 8 8 7 8 7 7 7 8 9 12 11 12 12 11 8 8 11 11 11 11 11 10 11 11 11 11 11 7 7 7 8
20 19 18 16 17 16 14 12 12 12 11 10 10 9 8 8 8 7 7 8 8 9 11 12 11 12 10 7 10 11 11 12 12 11 10 8 9 11 7 6 6 8 7
23 21 19 18 18 17 16 14 12 13 12 11 10 10 10 10 9 8 8 8 9 9 9 9 10 11 9 9 10 10 9 10 10 10 10 9 10 11 11 10 11 3 6
21 22 21 19 18 18 16 16 14 13 12 11 11 10 10 11 10 9 8 8 8 8 9 10 10 9 9 6 9 5 9 10 9 9 8 8 7 8 9 8 9 8 8
18 20 18 18 18 18 17 16 15 15 14 13 12 11 12 12 11 11 10 8 7 7 7 7 7 8 6 5 6 4 7 6 6 6 5 5 6 5 5 5 5 5 5
17 19 19 19 18 19 19 17 16 16 15 14 13 13 12 13 13 12 11 8 8 7 7 7 7 6 7 6 4 4 6 6 5 5 4 4 4 4 4 6 7 7 6
14 16 19 20 20 19 20 19 18 17 17 16 14 14 13 13 13 13 11 10 8 8 7 7 6 4 7 7 6 5 5 7 6 5 5 3 1 8 5 6 7 6 5
13 15 18 21 21 21 21 20 19 19 17 16 15 14 13 13 13 12 11 10 9 9 8 8 7 7 7 9 9 8 5 7 7 7 7 7 9 9 6 5 3 1 4
13 15 16 18 20 22 21 21 21 19 18 17 16 16 14 12 11 13 12 11 10 9 9 8 7 8 8 4 10 10 7 5 6 5 5 5 11 7 5 4 2 2 4
10 13 14 16 18 21 22 22 20 20 19 18 17 17 15 13 13 13 12 11 11 10 10 9 9 8 9 8 10 12 8 5 3 4 8 11 9 6 5 10 5 5 7
10 11 14 17 18 20 23 22 21 21 20 18 17 16 16 15 13 11 11 10 10 10 10 10 10 9 9 9 10 9 7 4 6 6 6 2 2 6 3 3 7 8 8
10 11 13 16 18 19 20 20 22 22 19 18 18 17 15 16 14 12 12 12 11 11 11 10 10 10 10 10 9 9 9 9 10 8 6 6 6 7 8 7 6 4 3
9 11 13 14 17 17 18 20 22 22 20 18 16 15 14 15 13 13 12 9 2 13 9 2 5 7 10 12 13 11 7 5 12 7 7 7 4 4 4 3 2 0 4
Wind_Direction
192 180 182 184 184 207 246 281 320 339 343 334 345 354 5 29 29 324 275 286 268 224 219 186 169 196 179 176 170 172 163 155 177 130 123 140 137 143 129 117 121 127 88
188 181 180 186 187 188 230 268 308 345 342 341 350 343 11 22 16 333 346 331 281 206 181 178 173 181 161 182 175 178 155 149 159 136 104 126 120 124 116 119 112 131 128
188 182 181 184 178 181 195 237 345 345 0 342 37 20 97 106 104 28 36 37 229 225 206 179 171 174 185 176 187 175 168 151 148 147 116 127 152 115 114 109 117 112 123
188 180 179 179 177 167 173 165 16 12 55 15 42 15 42 24 16 26 93 32 90 86 116 173 176 174 201 166 184 170 179 148 135 115 41 126 136 116 126 95 108 104 101
185 179 176 176 174 158 173 165 38 57 56 57 29 1 14 45 343 62 56 69 82 119 134 138 143 165 159 166 170 165 162 137 126 127 123 100 66 43 108 121 110 83 70
182 175 174 170 171 163 165 171 104 80 78 57 46 27 41 31 19 348 80 28 51 81 88 121 124 136 145 154 156 143 140 139 124 113 139 125 120 145 136 127 115 110 47
176 172 173 177 174 167 168 177 152 100 77 56 54 39 49 65 37 27 52 80 66 66 58 99 126 121 121 137 136 145 136 135 127 116 113 95 148 132 111 116 113 112 117
172 174 175 178 178 172 169 180 146 125 100 78 61 55 31 52 68 58 97 97 88 58 46 74 108 100 111 124 137 134 120 120 109 101 91 118 110 132 136 130 131 106 86
170 174 173 179 178 174 172 181 156 126 110 90 80 72 56 40 64 76 85 62 69 68 53 78 117 104 113 127 128 118 119 107 108 116 139 107 117 109 114 119 118 92 137
169 172 173 177 178 173 169 181 178 144 127 104 87 77 77 52 57 81 83 77 86 84 51 74 92 108 97 95 112 109 120 117 129 130 135 133 132 110 106 106 128 164 165
174 171 173 175 177 172 170 181 174 158 142 128 110 91 88 70 73 68 64 79 86 102 95 70 73 60 76 77 103 109 116 112 130 141 138 129 138 115 108 178 197 176 171
175 175 171 174 175 176 173 177 173 167 146 137 128 105 103 92 78 75 77 86 106 115 113 111 104 96 89 81 103 129 140 133 148 151 141 140 159 168 182 182 217 181 182
171 176 174 176 179 177 179 179 176 169 152 148 142 130 117 114 91 89 77 85 105 112 127 126 121 120 125 172 125 132 127 128 127 138 141 158 156 171 162 180 176 157 150
171 178 179 178 179 179 182 182 177 160 156 150 145 141 138 134 113 105 102 94 89 102 105 116 130 140 152 122 120 123 118 118 121 136 137 151 159 157 154 151 158 152 149
179 181 183 180 179 177 181 183 175 164 162 157 148 149 147 144 142 126 117 106 104 104 109 110 110 115 121 105 110 102 107 111 114 112 109 93 72 68 73 141 153 146 167
188 184 183 182 181 178 180 180 177 170 169 164 154 155 161 154 153 148 134 131 124 119 117 112 105 93 85 31 50 116 115 112 109 105 105 111 107 77 53 44 43 115 170
191 185 185 182 183 180 182 178 179 173 174 174 161 160 164 165 161 163 160 147 141 134 125 122 115 104 101 78 67 40 117 121 122 124 130 134 112 146 128 112 118 84 68
197 191 186 182 181 180 181 179 179 178 179 180 169 168 171 172 169 169 166 159 156 156 151 142 128 130 103 76 67 60 111 114 113 118 124 121 134 93 141 135 123 138 157
196 194 187 180 177 182 176 181 182 182 182 181 177 174 174 173 176 177 170 171 168 165 169 167 161 157 140 145 159 239 165 136 126 117 114 127 132 79 337 169 170 176 180
196 191 182 177 177 182 177 182 185 188 187 182 181 177 175 174 179 181 178 176 182 181 185 179 181 134 159 170 190 229 162 150 148 151 136 355 313 161 218 200 179 190 187
192 187 179 182 180 177 179 185 185 193 190 181 179 176 175 176 177 176 174 175 187 180 199 188 183 187 197 165 188 227 204 160 172 165 173 174 160 181 212 298 201 301 325
195 193 184 183 177 180 181 187 191 189 189 183 179 177 174 181 173 176 177 181 183 184 187 190 196 190 191 196 185 202 245 351 175 169 162 138 165 174 194 234 34 67 287
191 192 191 182 178 185 187 190 187 185 188 185 182 178 176 185 172 178 178 180 182 188 191 188 194 189 181 190 162 187 209 233 250 29 60 103 154 163 206 241 262 198 235
189 193 188 185 184 191 194 197 181 183 185 186 185 180 179 182 178 183 181 193 186 196 192 189 191 190 186 192 173 186 186 206 229 220 224 154 168 221 281 208 200 235 252
202 203 200 192 190 193 200 195 187 184 185 184 186 186 185 185 181 194 188 195 190 198 194 194 193 189 195 193 183 167 181 184 208 198 213 191 203 218 215 214 222 239 250
211 199 205 199 191 192 199 196 193 189 182 184 188 189 188 182 187 188 190 210 233 190 225 33 224 159 99 103 125 150 181 158 142 197 225 211 213 222 225 219 168 225 142